This is the latest recevied weather packets stored in our database for station/object IW1QLH-13. If no packets are shown the sender has not sent any weather packets the latest 10 day(s).
| Time | Temp. | Humidity | Pressure | Rain* | Wind** | Luminosity | Snow |
|---|---|---|---|---|---|---|---|
| 1777690797 | 10.56° C | 72% | 1018.2 hPa | - | - | - | - |
| 1777690168 | 11.67° C | 71% | 1018.1 hPa | - | - | - | - |
| 1777689539 | 11.67° C | 72% | 1018.1 hPa | - | - | - | - |
| 1777688907 | 11.67° C | 72% | 1018.2 hPa | - | - | - | - |
| 1777688278 | 11.67° C | 71% | 1018.2 hPa | - | - | - | - |
| 1777673698 | 13.89° C | 69% | 1017.6 hPa | - | - | - | - |
| 1777671106 | 13.89° C | 70% | 1017.3 hPa | - | - | - | - |
| 1777669084 | 15° C | 72% | 1017.2 hPa | - | - | - | - |
| 1777666318 | 15° C | 72% | 1016.8 hPa | - | - | 14 W/m² | - |
| 1777665681 | 15° C | 71% | 1016.7 hPa | - | - | 14 W/m² | - |
| 1777665040 | 15.56° C | 71% | 1016.5 hPa | - | - | 14 W/m² | - |
| 1777660626 | 16.67° C | 70% | 1015.8 hPa | - | - | 14 W/m² | - |
| 1777659990 | 17.78° C | 68% | 1015.8 hPa | - | - | 14 W/m² | - |
| 1777659359 | 17.78° C | 66% | 1015.6 hPa | - | - | 14 W/m² | - |
| 1777656206 | 18.89° C | 53% | 1015.5 hPa | - | - | 57 W/m² | - |
| 1777654947 | 18.89° C | 54% | 1015.5 hPa | - | - | 71 W/m² | - |
| 1777653058 | 20° C | 58% | 1015.4 hPa | - | - | 171 W/m² | - |
| 1777652429 | 20.56° C | 52% | 1015.5 hPa | - | - | 286 W/m² | - |
| 1777649911 | 21.67° C | 49% | 1015.8 hPa | - | - | 529 W/m² | - |
| 1777649283 | 20.56° C | 48% | 1015.8 hPa | - | - | 557 W/m² | - |
| 1777648653 | 20.56° C | 51% | 1015.9 hPa | - | - | 572 W/m² | - |
| 1777648024 | 20.56° C | 50% | 1016 hPa | - | - | 572 W/m² | - |
| 1777647395 | 21.67° C | 48% | 1015.9 hPa | - | - | 686 W/m² | - |
| 1777646766 | 21.67° C | 50% | 1015.9 hPa | - | - | 715 W/m² | - |
| 1777646137 | 22.78° C | 46% | 1016 hPa | - | - | 729 W/m² | - |
* Rain since midnight (hover to see other rain measurements)
** Current wind speed in m/s (hover to see current wind gust speed)